Location: Dumbr?vi?a
(45.8833°N, 22.7000°E)
Time: 15:05:44
(UTC+00:00)

Cosmos 2218 Rocket - Pass Details

Date: 03 March 2021
Orbit: 955 x 1007 km, 82.9° (Epoch: 15 April)

Event Time Altitude Azimuth Distance (km) Brightness Sun altitude
Rises 18:47:29 0° 198° (SSW) 3,720 7.0 -26.4°
Reaches altitude 10° 18:50:03 10° 202° (SSW) 2,776 6.4 -26.8°
Maximum altitude 18:56:21 61° 282° (WNW) 1,138 4.5 -27.8°
Drops below altitude 10° 19:02:43 10° 2° (N) 2,788 6.6 -28.8°
Sets 19:05:18 0° 6° (N) 3,737 7.3 -29.2°
